Regional Weather Roundup
Issued by NWS

Home | Current Version | Previous Version | Graphics & Text | Print | Product List | Glossary On
Versions: 1 2 3 4 5 6 7 8 9 10 11 12 13 14 15 16 17 18 19 20 21 22 23 24 25 26 27 28 29 30 31 32 33 34 35 36 37 38 39 40 41 42 43 44 45 46 47 48 49 50
527
ASUS43 KOAX 031110
RWRNE

WEATHER ROUNDUP FOR NEBRASKA
NATIONAL WEATHER SERVICE OMAHA NE
600 AM CDT TUE MAY 03 2016

NOTES: SATELLITE DATA IS BEING USED TO AUGMENT CLOUD COVER ABOVE
       12000 FEET.
       "FAIR" INDICATES FEW OR NO CLOUDS BELOW 12,000 FEET WITH NO
       SIGNIFICANT WEATHER AND/OR OBSTRUCTIONS TO VISIBILITY.

  * THESE STATIONS DO NOT REPORT WEATHER SUCH AS RAIN...SNOW OR FOG.

NEZ001>004-019>022-054>056-031200-
NEBRASKA PANHANDLE

CITY           SKY/WX    TMP DP  RH WIND       PRES   REMARKS
SCOTTSBLUFF    CLEAR     37  33  85 W7        30.11R WCI  32
ALLIANCE       CLEAR     33  32  96 NW8       30.08R WCI  26
CHADRON        CLEAR     35  33  92 SW9       30.09R WCI  28
KIMBALL        CLEAR     38  33  81 NW10      30.12R WCI  31
SIDNEY         CLEAR     37  33  85 NW12      30.09R WCI  29
$$

NEZ057>060-069>072-079>082-031200-
SOUTHWEST NEBRASKA

CITY           SKY/WX    TMP DP  RH WIND       PRES   REMARKS
NORTH PLATTE   MOCLDY    38  37  97 N8        30.06R FOG     WCI  32
IMPERIAL       MOCLDY    43  41  93 NW5       30.06R
LEXINGTON      CLEAR     40  38  93 N3        30.04S
MCCOOK         CLEAR     39  38  96 W6        30.03F WCI  35
OGALLALA       CLEAR     38  37  92 CALM      30.07R
$$

NEZ005>010-023>029-035>040-094-031200-
NORTH CENTRAL NEBRASKA

CITY           SKY/WX    TMP DP  RH WIND       PRES   REMARKS
VALENTINE      CLEAR     34  32  92 W6        30.06S WCI  29
AINSWORTH      CLEAR     34  34  99 CALM      30.06S
BROKEN BOW     CLEAR     38  37  97 N3        30.04S
O`NEILL        CLEAR     43  40  90 CALM      30.05S
ORD            CLEAR     35  34  96 SW3       30.03F
THEDFORD       CLEAR     38  37  98 W3        30.07S
$$

NEZ041-046>049-061>064-073>077-083>087-031200-
SOUTH CENTRAL NEBRASKA

CITY           SKY/WX    TMP DP  RH WIND       PRES   REMARKS
GRAND ISLAND   CLEAR     40  36  86 CALM      30.05S
AURORA         CLEAR     43  37  79 CALM      30.05S
HASTINGS       PTCLDY    41  35  79 CALM      30.04R
HEBRON         CLEAR     38  37  97 CALM      30.05S
HOLDREGE       CLEAR     41  39  91 CALM      30.04R
KEARNEY *      CLEAR     45  37  76 W3        30.04S
YORK           CLEAR     39  37  93 CALM      30.05S
$$

NEZ011>018-030>034-042>045-031200-
NORTHEAST NEBRASKA

CITY           SKY/WX    TMP DP  RH WIND       PRES   REMARKS
NORFOLK        PTCLDY    40  38  93 SW7       30.04S
ALBION         CLEAR     36  34  92 NW3       30.06R
BLAIR          CLEAR     44  39  81 CALM      30.03F
COLUMBUS *     PTCLDY    37  30  75 CALM      30.06R
FREMONT        CLEAR     41  41 100 CALM      30.04F
TEKAMAH        CLEAR     42  40  92 S6        30.04S
WAYNE          CLEAR     36  35  95 S3        30.04S
$$

NEZ050>053-065>068-078-088>093-031200-
SOUTHEAST NEBRASKA

CITY           SKY/WX    TMP DP  RH WIND       PRES   REMARKS
LINCOLN        CLEAR     40  38  93 N3        30.07R
OMAHA EPPLEY   PTCLDY    44  41  89 SE5       30.04F
BEATRICE       PTCLDY    40  39  95 CALM      30.05F
FALLS CITY     PTCLDY    43  41  93 CALM      30.05F
NEBRASKA CITY  CLEAR     46  42  89 W10       30.05S
PLATTSMOUTH    CLEAR     47  41  79 SW5       30.04F
$$

NEZ044-045-051>053-067-031200-
OMAHA AREA

CITY           SKY/WX    TMP DP  RH WIND       PRES   REMARKS
OMAHA EPPLEY   PTCLDY    44  41  89 SE5       30.04F
BLAIR          CLEAR     44  39  81 CALM      30.03F
FREMONT        CLEAR     41  41 100 CALM      30.04F
MILLARD        PTCLDY    40  39  96 CALM      30.05S FOG
OFFUTT AFB     CLEAR     42  42 100 CALM      30.04S
PLATTSMOUTH    CLEAR     47  41  79 SW5       30.04F
WAHOO          FAIR      42  41  94 CALM      30.05S
$$




USA.gov is the U.S. government's official web portal to all federal, state and local government web resources and services.